Terminal Aerodrome Forecast
Issued by NWS

Current Version | Previous Version | Text Only | Print | Product List | Glossary On
Versions: 1 2 3 4 5 6 7 8 9 10 11 12 13 14 15 16 17 18 19 20 21
000
FTUS46 KMFR 180544
TAFRBG
TAF
KRBG 180544Z 1806/1906 VRB03KT 4SM BR VCSH OVC004
     FM181000 16005KT 3SM BR OVC004
     FM181800 16004KT P6SM SCT010 BKN025
     FM182100 16008KT P6SM SCT025 OVC080=

USA.gov is the U.S. government's official web portal to all federal, state and local government web resources and services.